User: anonymous   Login
Location: Unspecified
(0.0000°N, 0.0000°E)
Time: 11:06:02
(UTC+00:00)
Language:

TBA - TO BE ASSIGNED - Orbit

View from above orbital plane
View from above orbital plane
View from above satellite
View from above satellite

Ground track
Ground track

The orbit is defined by the following mean orbital elements,

1 68582U          26145.38418031 +.00000000 +00000-0 +87230-3 0 00001
2 68582  51.8773 287.1057 0002222 272.6743  87.3990 15.36835682    04
Epoch (UTC): 25 May 2026 09:13:13
Eccentricity: 0.0002222
inclination: 51.8773°
perigee height: 454 km
apogee height: 457 km
right ascension of ascending node: 287.1057°
argument of perigee: 272.6743°
revolutions per day: 15.36835682
mean anomaly at epoch: 87.3990°

The dashed part of the orbit path shows where the satellite is in the earth's shadow,  

DLR